Location: Walnut Street Observatory
(41.0583°N, 76.2295°W)
Time: 06:33:16
(UTC-04:00)

Daily predictions for brighter satellites

Satellite Brightness Start Highest point End
(mag) Time Altitude Azimuth Time Altitude Azimuth Time Altitude Azimuth
Cosmos 1340 Rocket 4.1 20:51:49 10° SSW 20:55:40 46° WNW 20:59:35 10° N
Cosmos 2074 Rocket 4.1 20:54:38 10° S 21:00:55 89° W 21:07:13 10° N
H-2A R/B 3.5 21:00:23 10° S 21:04:00 51° W 21:07:39 10° NNW
Cosmos 1452 Rocket 3.7 20:59:01 10° S 21:04:04 49° ESE 21:09:09 10° NNE
Cosmos 1782 2.8 21:00:37 10° N 21:04:40 73° E 21:08:42 10° SSE
Cosmos 1674 Rocket 3.6 21:02:15 10° N 21:06:44 78° E 21:11:09 10° SSE
Cosmos 1356 Rocket 4.4 21:03:12 10° SSW 21:07:20 54° WNW 21:11:35 10° N
Cosmos 1190 Rocket 4.1 21:02:18 10° NNW 21:07:31 83° WSW 21:12:42 10° SSE
ATLAS 5 CENTAUR R/B 3.2 21:03:16 10° NW 21:09:06 49° WSW 21:15:17 10° S
Cosmos 1610 Rocket 4.5 21:04:44 10° S 21:10:51 75° E 21:17:06 10° N
USA 186 3.3 21:08:31 10° SSW 21:11:28 37° W 21:14:34 10° NNW
Okean 2 Rocket 4.2 21:08:27 10° SE 21:12:02 25° E 21:15:37 10° NE
Atlas Centaur 2 3.2 21:11:22 10° SW 21:13:12 13° S 21:15:00 10° SSE
CENTAUR R/B 4.1 21:08:29 10° NW 21:15:56 46° WSW 21:23:43 10° S
OAO 3 Rocket 4.5 21:13:19 10° SSW 21:17:08 22° SSE 21:20:23 12° ESE
Nadezhda 3 Rocket 4.2 21:11:45 10° N 21:18:02 60° E 21:24:19 10° SSE
Cosmos 1939 Rocket 2.8 21:17:13 10° SSE 21:21:03 67° ENE 21:24:58 10° N
Meteor 2-6 Rocket 4.4 21:15:09 10° N 21:21:08 83° W 21:26:55 10° S
Cosmos 1242 Rocket 3.9 21:18:39 10° NNE 21:21:41 24° ENE 21:23:49 15° ESE
Cosmos 1782 Rocket 4.1 21:18:35 10° SSE 21:22:44 39° E 21:26:54 10° NNE
Cosmos 1184 Rocket 3.5 21:19:50 10° SSE 21:22:54 35° E 21:25:59 10° NNE
Sich 1 Rocket 3.7 21:18:58 10° S 21:23:34 90° NNW 21:28:10 10° N
YAOGAN 6 4.0 21:21:31 14° ESE 21:23:35 23° ENE 21:26:25 10° NNE
ISS -3.4 21:20:28 10° SW 21:23:43 86° SE 21:26:59 10° NE
Cosmos 1238 Rocket 3.0 21:21:47 10° N 21:25:00 44° E 21:28:09 13° SSE
Cosmos 1408 2.8 21:21:42 10° S 21:25:14 48° E 21:28:46 10° NNE
SPOT 5 3.4 21:25:17 12° SE 21:30:03 54° ENE 21:35:17 10° N
DNEPR-1 R/B 4.4 21:26:13 10° NNW 21:31:31 47° NE 21:34:51 17° ESE
Cosmos 1833 Rocket 4.1 21:27:30 10° N 21:32:01 24° NE 21:35:46 13° ESE
Cosmos 2278 Rocket 2.1 21:30:07 10° SSW 21:35:46 74° ESE 21:41:27 10° NNE
Cosmos 1825 2.1 21:32:05 10° S 21:35:51 71° E 21:39:41 10° NNE
MetOp-A 4.4 21:31:46 14° SE 21:36:09 52° ENE 21:41:20 10° N
Cosmos 1844 Rocket 3.5 21:30:47 10° SW 21:36:18 54° WNW 21:41:51 10° NNE
Cosmos 1975 Rocket 3.3 21:33:32 10° N 21:37:46 51° E 21:40:50 18° SSE
Cosmos 676 Rocket 4.2 21:33:10 10° NNW 21:38:23 74° WSW 21:43:24 11° S
Cosmos 2084 3.5 21:34:46 10° SW 21:38:37 69° NW 21:42:26 10° NNE
Cosmos 1174 3.8 21:36:24 10° NW 21:39:28 48° WSW 21:41:30 17° S
Cosmos 1844 4.2 21:35:36 10° SSW 21:41:20 67° WNW 21:47:08 10° NNE
BREEZE-M DEB (TANK) 4.1 21:40:10 10° W 21:41:57 20° SSW 21:43:47 14° S
Cosmos 1954 Rocket 4.0 21:37:08 10° NNW 21:42:23 88° WSW 21:46:48 15° SSE
Cosmos 2341 Rocket 4.0 21:38:39 10° S 21:44:57 78° E 21:51:13 10° N
Cosmos 1908 Rocket 4.0 21:43:02 10° SSW 21:47:23 63° W 21:51:48 10° N
Cosmos 1378 Rocket 3.7 21:44:09 10° NNW 21:48:28 75° W 21:52:23 12° S
COS B Rocket 3.3 21:44:34 10° N 21:48:36 77° W 21:51:57 11° S
Intercosmos 25 3.3 21:47:58 22° SSE 21:49:49 43° E 21:52:51 10° NNE
SL-8 Rocket 4.1 21:49:49 12° SSE 21:55:23 56° E 22:01:28 10° NNE
Cosmos 2082 Rocket 2.8 21:50:20 10° NNW 21:55:47 44° ENE 21:58:58 23° ESE
Cosmos 1741 Rocket 4.1 21:52:12 10° NNW 21:57:23 61° ENE 22:00:22 25° SE
Nimbus 7 Rocket 4.5 21:51:57 10° NNE 21:57:55 83° WNW 22:03:55 10° SSW
Meteor 1-14 Rocket 4.4 21:53:53 16° SSE 21:58:13 51° E 22:03:35 10° NNE
deb Chang Zheng 4 4.2 21:53:56 10° N 21:58:17 60° WNW 22:02:39 10° SSW
Timation 2 Rocket 3.8 21:54:24 10° NNW 22:00:25 78° ENE 22:04:13 24° SSE
Cosmos 1023 Rocket 4.4 21:57:01 10° NNW 22:02:09 87° WSW 22:05:25 23° SSE
Cosmos 1812 4.4 22:01:03 10° NNE 22:03:48 18° ENE 22:04:10 18° E
USA 245 3.2 22:05:04 37° SE 22:06:11 59° ENE 22:10:17 10° N
GPS 2-05 Rocket1 3.6 22:03:48 10° WSW 22:07:12 34° S 22:07:26 34° S
Cosmos 2297 3.6 22:06:22 10° SSW 22:12:02 75° ESE 22:17:47 10° NNE
Envisat 4.0 22:09:07 10° S 22:13:54 42° W 22:18:44 10° NNW
H-2A R/B 3.4 22:12:33 11° SSW 22:16:15 34° W 22:20:08 10° NNW
Cosmos 2151 Rocket 3.7 22:16:23 34° SSE 22:18:07 58° E 22:22:35 10° NNE
NOAA 11 4.2 22:15:50 29° SSE 22:18:44 73° ENE 22:24:14 10° N
CZ-3C R/B 4.1 22:07:27 10° WSW 22:20:27 19° SSW 22:23:29 16° S
COSMOS 2487 4.2 22:18:24 10° NW 22:21:34 29° WSW 22:23:26 18° SSW
CZ-4 R/B 3.8 22:17:15 10° NNE 22:21:51 56° E 22:23:30 36° SSE
APEX 3.9 22:18:59 10° SW 22:22:52 67° WNW 22:28:00 10° NNE
Cosmos 614 Rocket 3.9 22:19:27 10° NNW 22:24:33 84° WSW 22:26:48 34° SSE
Cosmos 864 Rocket 4.4 22:21:57 26° SSE 22:25:29 65° E 22:31:35 10° NNE
BREEZE-M DEB (TANK) 4.3 22:31:25 10° NW 22:33:00 17° N 22:35:18 10° NE
Cosmos 1300 Rocket 4.4 22:33:36 34° E 22:33:36 34° E 22:37:32 10° NNE
Gbstr 26 Del rocket 4.4 22:28:53 10° NW 22:33:39 36° NNE 22:35:56 22° ENE
Cosmos 2366 rocket 3.9 22:32:20 24° S 22:36:23 84° E 22:42:45 10° N
Cosmos 1140 Rocket 4.4 22:31:57 10° NNW 22:36:47 41° WSW 22:39:36 22° SSW
Okean 1 Rocket 4.0 22:38:39 33° E 22:38:39 33° E 22:42:24 10° NNE
USA 234 3.5 22:34:51 10° ENE 22:40:58 41° SE 22:43:01 33° SSE
CZ-4C R/B 3.3 22:41:21 62° ESE 22:41:43 66° ENE 22:45:48 10° N
Landsat 7 3.8 22:40:33 49° SE 22:41:45 73° ENE 22:46:31 10° N
Cosmos 2369 Rocket 4.0 22:45:04 16° E 22:45:04 16° E 22:47:05 10° ENE
H-2A R/B 2.2 22:42:14 44° SE 22:43:50 65° ENE 22:49:06 10° N
CZ-4B R/B 3.8 22:42:03 10° N 22:46:55 60° WNW 22:50:13 20° SSW
ARGOS 3.5 22:46:31 32° SSW 22:48:54 60° W 22:54:13 10° NNW
Timation 1 Rocket 4.2 22:46:57 27° SSW 22:50:19 75° ESE 22:56:19 10° NNE
SL-08 RB Rocket 4.0 22:49:27 42° SSW 22:50:48 63° W 22:55:26 10° NNW
Okean 1-7 Rocket 4.2 22:47:08 10° N 22:51:24 41° ENE 22:51:25 41° ENE
Terra 1.7 22:56:47 62° SE 22:57:28 73° ENE 23:02:13 10° N
OAO 3 Rocket 4.4 22:55:30 10° WSW 22:58:14 28° SW 22:58:14 28° SW
ISS -0.5 22:58:01 10° WNW 23:00:29 20° NNW 23:02:59 10° NNE
Meteor 1-20 Rocket 4.1 23:01:01 42° SSW 23:02:59 87° W 23:08:33 10° N
Cosmos 1302 Rocket 4.2 23:06:46 51° E 23:06:46 51° E 23:11:43 10° NNE
Spot 4 3.7 23:11:31 71° ESE 23:11:54 77° ENE 23:16:45 10° N
CARTOSAT-1 3.6 23:15:43 67° WSW 23:15:47 67° W 23:20:05 10° NNW
Cosmos 1943 Rocket 4.5 23:18:12 10° ENE 23:18:12 10° ENE 23:18:12 10° ENE
Cosmos 1833 Rocket 3.1 23:10:48 10° NNW 23:16:14 52° WSW 23:17:28 44° SSW
Okean 1 3.7 23:14:50 10° NNW 23:18:36 63° WNW 23:18:36 63° WNW
Spot 2 4.4 23:16:02 10° NNE 23:19:31 54° NE 23:19:31 54° NE
Lacrosse 5 2.2 23:25:04 52° ENE 23:25:04 52° ENE 23:29:00 10° NE
USA 229 DEB 4.3 23:24:59 10° NW 23:31:46 48° WSW 23:33:32 40° SSW
USA 229 4.3 23:25:05 10° NW 23:31:52 48° WSW 23:33:38 41° SSW
Iridium 4 Rocket 3.8 23:28:53 10° N 23:34:46 65° E 23:35:10 63° ESE
ASTEX 1 3.5 23:32:55 10° N 23:37:51 67° W 23:38:12 64° WSW
BREEZE-M DEB (TANK) 4.5 23:33:36 10° WNW 23:38:18 22° WSW 23:38:18 22° WSW
Cosmos 2082 Rocket 3.6 23:34:56 10° NW 23:39:35 26° WSW 23:40:49 24° WSW
Cosmos 1812 4.4 23:36:22 10° NNW 23:39:21 28° W 23:39:21 28° W
Cosmos 1503 Rocket 4.1 23:41:22 10° NNW 23:46:27 66° ENE 23:46:27 66° ENE
Meteor 2-4 Rocket 3.7 23:42:41 10° N 23:48:06 68° ENE 23:48:06 68° ENE
NOSS 3-1 (A) 4.0 23:42:45 10° NNW 23:50:21 76° NE 23:52:37 52° SE
Cosmos 1821 Rocket 3.9 23:52:03 66° SSW 23:52:58 82° W 23:59:13 10° N
CZ-4B R/B 4.4 23:57:11 11° NNE 23:57:11 11° NNE 23:57:19 10° NNE
